FW8690 Weather Reports


time (UTC)temp
C
wind
direction
speed
KPH
gust
KPH
rain 1hr
cm
rain 24hr
cm
rain mn
cm
humidity
%
barometer
mb
20260505215003 10 0 0.0 0.0 0.00 0.00 0.00 77 1013.7
20260505214503 10 0 0.0 0.0 0.00 0.00 0.00 77 1013.7
20260505214213 10 0 0.0 0.0 0.00 0.00 0.00 77 1013.7
20260505213504 10 0 0.0 0.0 0.00 0.00 0.00 76 1013.7
20260505213213 10 0 0.0 0.0 0.00 0.00 0.00 76 1013.7
20260505212504 10 0 0.0 0.0 0.00 0.00 0.00 76 1013.6
20260505212003 10 0 0.0 0.0 0.00 0.00 0.00 76 1013.7
20260505211714 10 0 0.0 0.0 0.00 0.00 0.00 76 1013.7
20260505211003 10 0 0.0 0.0 0.00 0.00 0.00 75 1013.7
20260505210503 10 0 0.0 0.0 0.00 0.00 0.00 75 1013.6
20260505210004 10 0 0.0 0.0 0.00 0.00 0.00 75 1013.6
20260505205504 10 0 0.0 0.0 0.00 0.00 0.00 75 1013.7
20260505205004 11 0 0.0 0.0 0.00 0.00 0.00 75 1013.6
20260505204504 11 0 0.0 0.0 0.00 0.00 0.00 74 1013.7
20260505204004 11 0 0.0 0.0 0.00 0.00 0.00 74 1013.6
20260505203714 11 0 0.0 0.0 0.00 0.00 0.00 74 1013.7
20260505203004 11 0 0.0 0.0 0.00 0.00 0.00 74 1013.6
20260505202503 11 0 0.0 0.0 0.00 0.00 0.00 74 1013.6
20260505202004 11 0 0.0 0.0 0.00 0.00 0.00 73 1013.5
20260505201504 11 0 0.0 0.0 0.00 0.00 0.00 73 1013.5
20260505201004 11 0 0.0 0.0 0.00 0.00 0.00 73 1013.5
20260505200504 11 0 0.0 0.0 0.00 0.00 0.00 73 1013.5
20260505200004 11 0 0.0 0.0 0.00 0.00 0.00 73 1013.4
20260505195504 11 0 0.0 0.0 0.00 0.00 0.00 73 1013.3
20260505195004 11 0 0.0 0.0 0.00 0.00 0.00 73 1013.3
20260505194504 11 0 0.0 0.0 0.00 0.00 0.00 73 1013.2
20260505194003 11 0 0.0 0.0 0.00 0.00 0.00 73 1013.1
20260505193503 11 0 0.0 0.0 0.00 0.00 0.00 73 1013.2
20260505193003 11 0 0.0 0.0 0.00 0.00 0.00 73 1013.1
20260505192504 11 0 0.0 0.0 0.00 0.00 0.00 73 1013.0
20260505192214 11 308 0.0 0.0 0.00 0.00 0.00 72 1013.0
20260505191504 12 308 0.0 0.0 0.00 0.00 0.00 72 1013.1
20260505191214 12 0 0.0 0.0 0.00 0.00 0.00 72 1013.2
20260505190713 12 0 0.0 0.0 0.00 0.00 0.00 72 1013.2
20260505190214 12 0 0.0 0.0 0.00 0.00 0.00 72 1013.1
20260505185503 12 0 0.0 0.0 0.00 0.00 0.00 72 1013.0
20260505185003 12 0 0.0 0.0 0.00 0.00 0.00 72 1013.0
20260505184503 12 0 0.0 0.0 0.00 0.00 0.00 72 1013.0
20260505184004 12 0 0.0 0.0 0.00 0.00 0.00 72 1013.0
20260505183504 12 0 0.0 0.0 0.00 0.00 0.00 72 1012.9
20260505183004 12 0 0.0 0.0 0.00 0.00 0.00 71 1012.9
20260505182504 12 0 0.0 0.0 0.00 0.00 0.00 71 1012.9
20260505182214 12 0 0.0 0.0 0.00 0.00 0.00 71 1012.8
20260505181504 12 0 0.0 0.0 0.00 0.00 0.00 70 1012.9
20260505181003 13 0 0.0 0.0 0.00 0.00 0.00 69 1012.9
20260505180503 13 0 0.0 0.0 0.00 0.00 0.00 68 1012.9
20260505180003 13 0 0.0 0.0 0.00 0.00 0.00 67 1012.8
20260505175504 13 0 0.0 0.0 0.00 0.00 0.00 67 1012.7
20260505175004 13 0 0.0 0.0 0.00 0.00 0.00 67 1012.7
20260505174504 13 0 0.0 0.0 0.00 0.00 0.00 66 1012.7
20260505174004 13 0 0.0 0.0 0.00 0.00 0.00 65 1012.7
20260505173715 13 0 0.0 0.0 0.00 0.00 0.00 65 1012.7
20260505173003 14 0 0.0 0.0 0.00 0.00 0.00 65 1012.7
20260505172504 14 0 0.0 0.0 0.00 0.00 0.00 63 1012.8
20260505172003 14 0 0.0 0.0 0.00 0.00 0.00 63 1012.9
20260505171504 15 0 0.0 0.0 0.00 0.00 0.00 63 1012.8
20260505171004 15 0 0.0 0.0 0.00 0.00 0.00 61 1012.9
20260505170505 15 0 0.0 0.0 0.00 0.00 0.00 61 1013.0
20260505170004 15 0 0.0 0.0 0.00 0.00 0.00 62 1013.0
20260505165504 15 0 0.0 0.0 0.00 0.00 0.00 62 1013.0
20260505165004 15 0 0.0 0.0 0.00 0.00 0.00 60 1012.9
20260505164504 15 0 0.0 0.0 0.00 0.00 0.00 60 1013.0
20260505164003 15 0 0.0 0.0 0.00 0.00 0.00 58 1013.1
20260505163503 15 308 0.0 1.6 0.00 0.00 0.00 58 1013.0
20260505163213 15 308 0.0 1.6 0.00 0.00 0.00 60 1012.9
20260505162503 15 0 0.0 0.0 0.00 0.00 0.00 58 1012.9
20260505162003 15 0 0.0 0.0 0.00 0.00 0.00 59 1012.9
20260505161503 15 0 0.0 0.0 0.00 0.00 0.00 60 1013.0
20260505161213 15 0 0.0 0.0 0.00 0.00 0.00 61 1012.9
20260505160503 15 0 0.0 0.0 0.00 0.00 0.00 62 1013.0
20260505153213 15 0 0.0 0.0 0.00 0.00 0.00 58 1013.1
20260505152504 16 0 0.0 0.0 0.00 0.00 0.00 59 1013.0
20260505152003 16 0 0.0 0.0 0.00 0.00 0.00 57 1013.0
20260505151714 16 0 0.0 0.0 0.00 0.00 0.00 56 1013.0
20260505151004 16 0 0.0 0.0 0.00 0.00 0.00 57 1013.0
20260505150503 16 0 0.0 0.0 0.00 0.00 0.00 56 1013.0
20260505140504 17 0 0.0 0.0 0.00 0.00 0.00 58 1013.2
20260505125004 16 0 0.0 0.0 0.00 0.00 0.00 59 1013.5
20260505124504 16 0 0.0 0.0 0.00 0.00 0.00 60 1013.4
20260505124214 16 0 0.0 0.0 0.00 0.00 0.00 60 1013.5
20260505123715 16 0 0.0 0.0 0.00 0.00 0.00 58 1013.5
20260505123004 16 0 0.0 0.0 0.00 0.00 0.00 59 1013.5
20260505122503 16 0 0.0 0.0 0.00 0.00 0.00 59 1013.6
20260505122003 16 0 0.0 0.0 0.00 0.00 0.00 58 1013.6
20260505121503 16 0 0.0 0.0 0.00 0.00 0.00 59 1013.6
20260505121003 16 0 0.0 0.0 0.00 0.00 0.00 61 1013.7
20260505120504 16 0 0.0 0.0 0.00 0.00 0.00 61 1013.7
20260505120004 16 0 0.0 0.0 0.00 0.00 0.00 60 1013.6
20260505115504 16 308 0.0 1.6 0.00 0.00 0.00 60 1013.7
20260505115004 16 308 0.0 1.6 0.00 0.00 0.00 62 1013.7
20260505114503 16 0 0.0 0.0 0.00 0.00 0.00 62 1013.7
20260505114004 16 0 0.0 0.0 0.00 0.00 0.00 61 1013.7
20260505113503 16 0 0.0 0.0 0.00 0.00 0.00 60 1013.7
20260505113003 16 0 0.0 0.0 0.00 0.00 0.00 60 1013.8
20260505112503 16 0 0.0 0.0 0.00 0.00 0.00 60 1013.8
20260505112004 16 0 0.0 0.0 0.00 0.00 0.00 61 1013.8
20260505111504 16 308 0.0 1.6 0.00 0.00 0.00 60 1013.8
20260505111004 16 308 0.0 1.6 0.00 0.00 0.00 61 1013.7
20260505110504 16 0 0.0 0.0 0.00 0.00 0.00 60 1013.9
20260505102213 15 0 0.0 0.0 0.00 0.00 0.00 65 1014.1
20260505101504 15 0 0.0 0.0 0.00 0.00 0.00 66 1014.2
20260505101003 15 0 0.0 0.0 0.00 0.00 0.00 68 1014.2
20260505100503 14 0 0.0 0.0 0.00 0.00 0.00 69 1014.1
20260505100003 13 0 0.0 0.0 0.00 0.00 0.00 71 1014.3
20260505095503 13 309 0.0 0.0 0.00 0.00 0.00 74 1014.3
20260505095003 13 309 0.0 0.0 0.00 0.00 0.00 74 1014.1
20260505094503 12 0 0.0 0.0 0.00 0.00 0.00 74 1014.2
20260505094003 12 0 0.0 0.0 0.00 0.00 0.00 75 1014.3
20260505093503 12 0 0.0 0.0 0.00 0.00 0.00 77 1014.2
20260505093004 12 0 0.0 0.0 0.00 0.00 0.00 78 1014.2
20260505092503 12 0 0.0 0.0 0.00 0.00 0.00 78 1014.3
20260505092003 12 0 0.0 0.0 0.00 0.00 0.00 79 1014.4
20260505091503 12 0 0.0 0.0 0.00 0.00 0.00 79 1014.2
20260505091004 12 0 0.0 0.0 0.00 0.00 0.00 79 1014.2
20260505090713 12 0 0.0 0.0 0.00 0.00 0.00 79 1014.2
20260505090004 12 0 0.0 0.0 0.00 0.00 0.00 80 1014.3
20260505085504 12 0 0.0 0.0 0.00 0.00 0.00 80 1014.3
20260505085004 12 0 0.0 0.0 0.00 0.00 0.00 80 1014.3
20260505084504 12 0 0.0 0.0 0.00 0.00 0.00 81 1014.3
20260505084003 12 0 0.0 0.0 0.00 0.00 0.00 82 1014.3
20260505083503 12 0 0.0 0.0 0.00 0.00 0.00 83 1014.3
20260505083003 11 0 0.0 0.0 0.00 0.00 0.00 84 1014.3
20260505082504 11 0 0.0 0.0 0.00 0.00 0.00 84 1014.3
20260505082004 11 0 0.0 0.0 0.00 0.00 0.00 84 1014.3
20260505081504 11 0 0.0 0.0 0.00 0.00 0.00 84 1014.3
20260505081004 11 0 0.0 0.0 0.00 0.00 0.00 84 1014.2
20260505080504 11 0 0.0 0.0 0.00 0.00 0.00 84 1014.4
20260505080004 11 0 0.0 0.0 0.00 0.00 0.00 84 1014.3
20260505075713 11 0 0.0 0.0 0.00 0.00 0.00 84 1014.3
20260505075003 11 0 0.0 0.0 0.00 0.00 0.00 84 1014.3
20260505074503 10 0 0.0 0.0 0.00 0.00 0.00 84 1014.3
20260505074004 10 0 0.0 0.0 0.00 0.00 0.00 84 1014.4
20260505073504 10 0 0.0 0.0 0.00 0.00 0.00 84 1014.3
20260505073214 10 0 0.0 0.0 0.00 0.00 0.00 84 1014.3
20260505072504 10 0 0.0 0.0 0.00 0.00 0.00 83 1014.4
20260505072003 10 0 0.0 0.0 0.00 0.00 0.00 83 1014.4
20260505071503 10 0 0.0 0.0 0.00 0.00 0.00 83 1014.4
20260505071004 10 0 0.0 0.0 0.00 0.00 0.00 83 1014.4
20260505070503 10 0 0.0 0.0 0.00 0.00 0.00 83 1014.5
20260505070213 10 0 0.0 0.0 0.00 0.00 0.00 83 1014.5
20260505065504 10 0 0.0 0.0 0.00 0.00 0.00 83 1014.6
20260505065004 10 0 0.0 0.0 0.00 0.00 0.00 83 1014.4
20260505064504 9 0 0.0 0.0 0.00 0.00 0.00 83 1014.4
20260505064004 9 0 0.0 0.0 0.00 0.00 0.00 83 1014.4
20260505063504 9 0 0.0 0.0 0.00 0.00 0.00 83 1014.5
20260505063003 9 0 0.0 0.0 0.00 0.00 0.00 82 1014.5
20260505062503 9 0 0.0 0.0 0.00 0.00 0.00 82 1014.4
20260505062213 9 0 0.0 0.0 0.00 0.00 0.00 82 1014.4
20260505061503 9 0 0.0 0.0 0.00 0.00 0.00 82 1014.3
20260505061004 9 0 0.0 0.0 0.00 0.00 0.00 82 1014.3
20260505060504 9 0 0.0 0.0 0.00 0.00 0.00 82 1014.2
20260505060004 8 0 0.0 0.0 0.00 0.00 0.00 82 1014.3
20260505055504 8 0 0.0 0.0 0.00 0.00 0.00 82 1014.3
20260505055003 8 0 0.0 0.0 0.00 0.00 0.00 82 1014.2
20260505054503 8 0 0.0 0.0 0.00 0.00 0.00 82 1014.3
20260505054003 8 0 0.0 0.0 0.00 0.00 0.00 82 1014.2
20260505053503 8 0 0.0 0.0 0.00 0.00 0.00 82 1014.2
20260505053213 8 0 0.0 0.0 0.00 0.00 0.00 82 1014.2
20260505052714 8 0 0.0 0.0 0.00 0.00 0.00 82 1014.2
20260505052213 8 0 0.0 0.0 0.00 0.00 0.00 82 1014.0
20260505051504 8 0 0.0 0.0 0.00 0.00 0.00 82 1014.1
20260505051213 8 0 0.0 0.0 0.00 0.00 0.00 83 1014.1
20260505050504 8 0 0.0 0.0 0.00 0.00 0.00 83 1014.1
20260505050213 8 0 0.0 0.0 0.00 0.00 0.00 83 1014.0
20260505041503 8 0 0.0 0.0 0.00 0.00 0.00 83 1014.1
20260505041003 8 0 0.0 0.0 0.00 0.00 0.00 83 1014.0
20260505040503 8 0 0.0 0.0 0.00 0.00 0.00 83 1014.0
20260505040005 9 0 0.0 0.0 0.00 0.00 0.00 83 1013.9
20260505035504 9 0 0.0 0.0 0.00 0.00 0.00 83 1014.0
20260505035004 9 0 0.0 0.0 0.00 0.00 0.00 83 1013.9
20260505034504 9 0 0.0 0.0 0.00 0.00 0.00 83 1014.0
20260505034003 9 0 0.0 0.0 0.00 0.00 0.00 83 1013.9
20260505033504 9 0 0.0 0.0 0.00 0.00 0.00 83 1013.9
20260505033003 9 0 0.0 0.0 0.00 0.00 0.00 83 1014.0
20260505032713 9 0 0.0 0.0 0.00 0.00 0.00 83 1014.1
20260505032003 10 0 0.0 0.0 0.00 0.00 0.00 83 1014.0
20260505031504 10 0 0.0 0.0 0.00 0.00 0.00 83 1014.0
20260505031004 10 0 0.0 0.0 0.00 0.00 0.00 83 1014.0
20260505030504 10 0 0.0 0.0 0.00 0.00 0.00 83 1014.1
20260505030214 10 0 0.0 0.0 0.00 0.00 0.00 83 1014.0
20260505025713 10 0 0.0 0.0 0.00 0.00 0.00 83 1014.0
20260505025004 10 0 0.0 0.0 0.00 0.00 0.00 83 1014.0
20260505024503 10 0 0.0 0.0 0.00 0.00 0.00 83 1014.0
20260505024003 10 0 0.0 0.0 0.00 0.00 0.00 83 1014.0
20260505023713 10 0 0.0 0.0 0.00 0.00 0.00 83 1014.0
20260505023004 10 0 0.0 0.0 0.00 0.00 0.00 83 1014.1
20260505022504 10 0 0.0 0.0 0.00 0.00 0.00 83 1014.1
20260505022214 10 0 0.0 0.0 0.00 0.00 0.00 83 1014.1
20260505021503 10 0 0.0 0.0 0.00 0.00 0.00 83 1014.2
20260505021003 10 0 0.0 0.0 0.00 0.00 0.00 83 1014.2
20260505020713 10 0 0.0 0.0 0.00 0.00 0.00 83 1014.2
20260505020004 10 0 0.0 0.0 0.00 0.00 0.00 83 1014.2
20260505015503 10 0 0.0 0.0 0.00 0.00 0.00 84 1014.4
20260505015003 10 0 0.0 0.0 0.00 0.00 0.00 84 1014.3
20260505014504 10 0 0.0 0.0 0.00 0.00 0.00 84 1014.4
20260505014004 10 0 0.0 0.0 0.00 0.00 0.00 84 1014.4
20260505013504 10 0 0.0 0.0 0.00 0.00 0.00 84 1014.5
20260505013214 10 0 0.0 0.0 0.00 0.00 0.00 83 1014.5
20260505012503 10 0 0.0 0.0 0.00 0.00 0.00 84 1014.6
20260505012003 10 0 0.0 0.0 0.00 0.00 0.00 83 1014.5
20260505011503 10 0 0.0 0.0 0.00 0.00 0.00 83 1014.6
20260505011003 10 0 0.0 0.0 0.00 0.00 0.00 83 1014.6
20260505010714 10 0 0.0 0.0 0.00 0.00 0.00 83 1014.6
20260505010004 10 0 0.0 0.0 0.00 0.00 0.00 83 1014.6
20260505005504 11 0 0.0 0.0 0.00 0.00 0.00 83 1014.6
20260505005213 11 0 0.0 0.0 0.00 0.00 0.00 83 1014.6
20260505004504 11 0 0.0 0.0 0.00 0.00 0.00 83 1014.6
20260505004003 11 0 0.0 0.0 0.00 0.00 0.00 83 1014.7
20260505003504 11 0 0.0 0.0 0.00 0.00 0.00 83 1014.8
20260505003003 11 0 0.0 0.0 0.00 0.00 0.00 83 1014.8
20260505002503 11 0 0.0 0.0 0.00 0.00 0.00 83 1014.8
20260505002003 11 0 0.0 0.0 0.00 0.00 0.00 83 1014.9
20260505001503 11 0 0.0 0.0 0.00 0.00 0.00 83 1014.9
20260505001003 11 0 0.0 0.0 0.00 0.00 0.00 83 1014.8
20260505000503 11 0 0.0 0.0 0.00 0.00 0.00 83 1015.0
20260505000003 11 0 0.0 0.0 0.00 0.00 0.00 83 1015.0
20260504235503 11 0 0.0 0.0 0.00 0.00 0.00 83 1015.0
20260504235213 11 0 0.0 0.0 0.00 0.00 0.00 83 1015.0
20260504234503 11 0 0.0 0.0 0.00 0.00 0.00 83 1015.1
20260504234003 11 0 0.0 0.0 0.00 0.00 0.00 83 1015.0
20260504233714 11 0 0.0 0.0 0.00 0.00 0.00 83 1015.1
20260504233004 11 0 0.0 0.0 0.00 0.00 0.00 84 1015.1
20260504232714 11 0 0.0 0.0 0.00 0.00 0.00 84 1015.0
20260504232004 11 0 0.0 0.0 0.00 0.00 0.00 84 1014.9
20260504231714 11 0 0.0 0.0 0.00 0.00 0.00 84 1014.9
20260504231213 11 0 0.0 0.0 0.00 0.00 0.00 84 1014.9
20260504230503 11 0 0.0 0.0 0.00 0.00 0.00 84 1015.0
20260504230005 11 0 0.0 0.0 0.00 0.00 0.00 84 1014.9
20260504225503 11 0 0.0 0.0 0.00 0.00 0.00 84 1014.8
20260504225215 11 0 0.0 0.0 0.00 0.00 0.00 84 1014.7
20260504224504 11 0 0.0 0.0 0.00 0.00 0.00 84 1014.7
20260504224004 11 0 0.0 0.0 0.00 0.00 0.00 84 1014.8
20260504223713 11 0 0.0 0.0 0.00 0.00 0.00 84 1014.8
20260504223214 11 0 0.0 0.0 0.00 0.00 0.00 84 1014.9
20260504222504 11 309 0.0 1.6 0.00 0.00 0.00 84 1014.9
20260504222214 11 309 0.0 1.6 0.00 0.00 0.00 84 1015.0
20260504221503 12 0 0.0 0.0 0.00 0.00 0.00 84 1015.1
20260504221003 12 0 0.0 0.0 0.00 0.00 0.00 84 1015.1
20260504220504 12 0 0.0 0.0 0.00 0.00 0.00 84 1015.1
20260504220004 12 0 0.0 0.0 0.00 0.00 0.00 84 1015.1
20260504215504 12 0 0.0 0.0 0.00 0.00 0.00 84 1015.2